Penn Yan, NY

10:29 PM EST on February 10, 2016 (GMT -0500)
Penn Yan

Weather History for KPEO - September, 2013

Change the Weather History Date:

Saturday, September 28, 2013

  Actual Average Record
Temperature  
Mean Temperature 58 °F -  
Max Temperature 70 °F - - ()
Min Temperature 46 °F - - ()
Degree Days  
Heating Degree Days 7    
Growing Degree Days 8 (Base 50)    
Moisture  
Dew Point 50 °F    
Average Humidity 84    
Maximum Humidity 100    
Minimum Humidity 51    
Precipitation  
Precipitation 0.00 in - - ()
Sea Level Pressure  
Sea Level Pressure 30.28 in    
Wind  
Wind Speed 2 mph (South)    
Max Wind Speed 10 mph    
Max Gust Speed -    
Visibility 5 miles    
Events Fog    
T = Trace of Precipitation, MM = Missing Value Source: NWS Daily Summary

Daily Weather History Graph

Daily Weather History Graph

Search for Another Location

Airport or City:

Trip Planner

Search our weather history database for the weather conditions in past years. The results will help you decide how hot, cold, wet, or windy it might be!

Date:

Astronomy

Sep. 28, 2013 Rise Set
Actual Time 7:02 AM EDT 6:54 PM EDT
Civil Twilight 6:34 AM EDT 7:22 PM EDT
Nautical Twilight 6:01 AM EDT 7:55 PM EDT
Astronomical Twilight 5:28 AM EDT 8:28 PM EDT
Moon 12:41 AM EDT (9/28) 3:18 PM EDT (9/28)
Length of Visible Light 12h 48m
Length of Day
11h 52m
Last Quarter, 36% of the Moon is Illuminated
Sep 28
Last Quarter
Oct 4
New
Oct 11
First Quarter
Oct 18
Full
Oct 26
Last Quarter

Hourly Weather History & Observations

Time (EDT) Temp. Windchill Dew Point Humidity Pressure Visibility Wind Dir Wind Speed Gust Speed Precip Events Conditions
12:53 AM 46.0 °F - 45.0 °F 96% 30.28 in 5.0 mi Calm Calm - N/A   Clear
1:02 AM 46.4 °F - 44.6 °F 93% 30.28 in 4.0 mi Calm Calm - N/A   Partly Cloudy
1:08 AM 46.4 °F - 44.6 °F 93% 30.28 in 1.5 mi Calm Calm - N/A   Scattered Clouds
1:10 AM 46.4 °F 45.2 °F 44.6 °F 93% 30.28 in 0.8 mi South 3.5 mph - N/A   Mist
1:23 AM 48.2 °F - 46.4 °F 93% 30.28 in 1.2 mi Calm Calm - N/A   Scattered Clouds
1:29 AM 48.2 °F - 48.2 °F 100% 30.28 in 0.8 mi Calm Calm - N/A   Mist
1:53 AM 48.9 °F - 48.0 °F 97% 30.29 in 0.2 mi Calm Calm - N/A Fog Fog
2:53 AM 52.0 °F - 51.1 °F 97% 30.28 in 0.2 mi Calm Calm - N/A Fog Fog
3:53 AM 51.1 °F - 51.1 °F 100% 30.28 in 0.2 mi Calm Calm - N/A Fog Fog
4:53 AM 52.0 °F - 52.0 °F 100% 30.28 in 0.2 mi Calm Calm - N/A Fog Fog
5:53 AM 52.0 °F - 51.1 °F 97% 30.29 in 0.2 mi Calm Calm - N/A Fog Fog
6:53 AM 51.1 °F - 51.1 °F 100% 30.31 in 0.2 mi Calm Calm - N/A Fog Fog
7:53 AM 51.1 °F - 50.0 °F 96% 30.32 in 0.2 mi SSW 4.6 mph - N/A Fog Fog
8:53 AM 51.1 °F - 50.0 °F 96% 30.33 in 0.2 mi SSW 5.8 mph - N/A Fog Fog
9:43 AM 51.8 °F - 50.0 °F 94% 30.33 in 1.2 mi SW 5.8 mph - N/A   Overcast
9:53 AM 52.0 °F - 51.1 °F 97% 30.34 in 1.8 mi Variable 3.5 mph - N/A   Overcast
10:00 AM 53.6 °F - 51.8 °F 94% 30.32 in 2.5 mi SSW 5.8 mph - N/A   Mostly Cloudy
10:06 AM 55.4 °F - 51.8 °F 88% 30.33 in 3.0 mi Variable 3.5 mph - N/A   Scattered Clouds
10:53 AM 61.0 °F - 51.1 °F 70% 30.33 in 10.0 mi SSW 10.4 mph - N/A   Clear
11:53 AM 64.9 °F - 53.1 °F 65% 30.31 in 10.0 mi SW 3.5 mph - N/A   Clear
12:53 PM 69.1 °F - 54.0 °F 58% 30.30 in 10.0 mi NW 4.6 mph - N/A   Partly Cloudy
1:53 PM 69.1 °F - 51.1 °F 53% 30.28 in 10.0 mi Calm Calm - N/A   Mostly Cloudy
2:53 PM 69.1 °F - 53.1 °F 57% 30.25 in 10.0 mi SSE 6.9 mph - N/A   Mostly Cloudy
3:53 PM 69.1 °F - 52.0 °F 54% 30.24 in 10.0 mi SE 10.4 mph - N/A   Partly Cloudy
4:53 PM 70.0 °F - 51.1 °F 51% 30.22 in 10.0 mi SSE 10.4 mph - N/A   Partly Cloudy
5:53 PM 66.9 °F - 50.0 °F 54% 30.23 in 10.0 mi SE 8.1 mph - N/A   Clear
6:53 PM 61.0 °F - 50.0 °F 67% 30.24 in 10.0 mi SE 5.8 mph - N/A   Clear
7:53 PM 57.0 °F - 48.9 °F 74% 30.24 in 10.0 mi SSE 4.6 mph - N/A   Clear
8:53 PM 54.0 °F - 48.0 °F 80% 30.25 in 10.0 mi South 3.5 mph - N/A   Clear
9:53 PM 52.0 °F - 48.0 °F 86% 30.23 in 10.0 mi South 3.5 mph - N/A   Clear
10:53 PM 51.1 °F - 48.0 °F 89% 30.22 in 10.0 mi South 3.5 mph - N/A   Clear
11:53 PM 48.9 °F - 46.9 °F 93% 30.22 in 9.0 mi Calm Calm - N/A   Clear